Notices

What's New in latest Release from April 7th, 2021:

- Updated Glossary, including Speed of Maximum Gust, and Total Hourly Precipitation

- Updated national and regional climate services offices contacts and prices information

- Addition of station inventory lists for 1981-2010, 1971-2000, and 1961-1990 Normals.

If you haven't already, please take our survey and provide feedback about our website: https://eccc.sondage-survey.ca/f/LanguageSelection.aspx?s=442ca660-fcf1-47c0-95a9-59707d6fd709

Hourly Data Report for March 01, 2021

VICTORIA UNIVERSITY CS
BRITISH COLUMBIA
Current Station Operator: ECCC - MSC

48°27'25.200" N
123°18'16.600" W
60.10 m
1018598
71783
WYJ

Download Data

Hourly Data (March 2021)
Hourly Data Report for March 1, 2021
TIME
LST
Temp Definition
°C
Dew Point Definition
°C
Rel Hum Definition
%
Precip. Amount Definition
mm

Wind Dir Definition
10's deg

Wind Spd Definition
km/h
Visibility Definition
km
Stn Press Definition
kPa
Hmdx Definition


Wind Chill Definition


Weather Definition


00:00 5.2 5.2 100 0.0 32 6   101.17     LegendNANA
01:00 5.0 4.7 98 0.0 33 6   101.12     LegendNANA
02:00 3.8 3.8 100 0.0 32 4   101.12     LegendNANA
03:00 2.9 2.9 100 0.0 24 2   101.06     LegendNANA
04:00 3.3 3.2 100 0.0 24 1   101.00     LegendNANA
05:00 3.3 3.3 100 0.0 36 1   101.00     LegendNANA
06:00 5.1 5.1 100 0.0 0 1   101.02     LegendNANA
07:00 4.5 4.5 100 0.0 0 1   101.02     LegendNANA
08:00 4.9 4.9 100 0.0 36 3   101.03     LegendNANA
09:00 6.3 6.2 99 0.0 32 2   101.05     LegendNANA
10:00 6.9 6.5 97 0.0 1 7   101.10     LegendNANA
11:00 8.5 6.0 85 0.0 3 4   101.11     LegendNANA
12:00 8.6 6.2 85 0.0 10 4   101.10     LegendNANA
13:00 9.5 6.4 81 0.0 11 4   101.06     LegendNANA
14:00 8.6 6.5 87 0.0 14 2   101.05     LegendNANA
15:00 9.1 6.1 82 0.0 5 2   101.08     LegendNANA
16:00 10.1 5.5 73 0.0 18 7   101.03     LegendNANA
17:00 9.1 5.5 78 0.0 21 4   101.04     LegendNANA
18:00 6.7 5.4 91 0.0 25 2   101.04     LegendNANA
19:00 6.9 4.9 87 0.0 14 2   101.10     LegendNANA
20:00 7.4 4.8 83 0.0 27 8   101.08     LegendNANA
21:00 7.1 3.3 77 0.0 26 8   101.10     LegendNANA
22:00 7.5 2.4 70 0.0 26 10   101.14     LegendNANA
23:00 5.6 2.2 79 0.0 25 10   101.12     LegendNANA

Notes on Data Quality.

Legend

  • E = Estimated
  • M = Missing
  • NA = Not Available*
  • [empty] = Indicates an unobserved value
Date modified: